Location: Sulphur Springs (historical)
(38.1246°N, 122.1900°W)
Time: 09:56:36
(UTC+00:00)

Cosmos 1455 - Pass Details

Date: 29 October 2020
Orbit: 500 x 521 km, 82.5° (Epoch: 23 November)

Event Time Altitude Azimuth Distance (km) Brightness Sun altitude
Rises 13:31:48 0° 358° (N) 2,655 5.7 -12.4°
Reaches altitude 10° 13:33:59 10° 3° (N) 1,763 4.9 -12.0°
Maximum altitude 13:37:46 51° 81° (E) 659 3.2 -11.3°
Drops below altitude 10° 13:41:31 10° 158° (SSE) 1,749 5.3 -10.5°
Sets 13:43:41 0° 163° (SSE) 2,630 6.2 -10.1°
